Location: Vlissingen
(51.4500°N, 3.5830°E)
Time: 13:17:41
(UTC+01:00)

N. Korean satellite - Pass Details

Date: 04 December 2021
Orbit: 447 x 490 km, 97.3° (Epoch: 27 January)

Event Time Altitude Azimuth Distance (km) Brightness Sun altitude
Rises 18:00:32 0° 202° (SSW) 2,526 10.9 -12.0°
Reaches altitude 10° 18:03:03 10° 221° (SW) 1,644 10.3 -12.4°
Maximum altitude 18:05:38 19° 268° (W) 1,189 9.6 -12.8°
Drops below altitude 10° 18:08:12 10° 315° (NW) 1,634 9.6 -13.1°
Sets 18:10:41 0° 334° (NNW) 2,506 10.3 -13.5°
